Flag for France Weather past 2 weeks in Le Havre, France

46 °F

Passing clouds.

Feels Like: 39 °F
Forecast: 52 / 54 °F
Wind: 17 mph from Northwest

Location: La Heve

Current Time: Nov 28, 2015 at 9:26:55 AM

Latest Report: Nov 28, 2015 at 9:00 AM

Visibility: N/A

Pressure: 30.07 "Hg

Humidity: 62%

Dew point: 34 °F

Location of Le HavreLocation

Historic Weather in Le Havre — Graph


Le Havre temperature yesterday

Maximum temperature yesterday: 50 °F (at 11:00 AM)
Minimum temperature yesterday: 48 °F (at 12:30 AM)
Average temperature yesterday: 49 °F

Past Weeks' High & Low Weather Summary

High61 °F (Nov 17, 1:30 PM)100% (Nov 16, 3:00 PM)30.42 "Hg (Nov 16, 3:00 PM)
Low34 °F (Nov 23, 8:30 AM)56% (Nov 22, 2:30 AM)29.59 "Hg (Nov 21, 5:00 AM)
Average50 °F82%30.02 "Hg
* Reported Nov 13 7:00 AM — Nov 28 7:30 AM, Le Havre, Weather by CustomWeather, © 2015

Note: Actual official high and low records may vary slightly from our data, if they occured in-between our weather recording intervals... More about our weather records


Le Havre weather history for previous 24 hours

Time TempWeatherWind HumidityBarometerVisibility
7:30 AM
Sat, Nov 28
46 °FPassing clouds.18 mph57%30.07 "HgN/A
7:00 AM46 °FPassing clouds.20 mph57%30.04 "HgN/A
6:30 AM46 °FPassing clouds.20 mph57%30.04 "HgN/A
5:30 AM46 °FPassing clouds.22 mph57%30.04 "HgN/A
5:00 AM45 °FPassing clouds.22 mph61%30.01 "HgN/A
4:30 AM46 °FPassing clouds.22 mph62%30.01 "HgN/A
4:00 AM46 °FPassing clouds.22 mph66%29.98 "HgN/A
3:30 AM46 °FPassing clouds.23 mph62%29.98 "HgN/A
3:00 AM46 °FPassing clouds.23 mph71%29.95 "HgN/A
2:30 AM46 °FPartly cloudy.25 mph71%29.95 "HgN/A
12:30 AM48 °FPassing clouds.30 mph76%29.89 "HgN/A
12:00 AM48 °FPartly cloudy.29 mph76%29.86 "HgN/A
11:30 PM
Fri, Nov 27
48 °FMostly cloudy.22 mph87%29.86 "HgN/A
11:00 PM48 °FLight rain. Mostly cloudy.23 mph87%29.86 "Hg6 mi
10:30 PM48 °FDrizzle. Mostly cloudy.28 mph87%29.83 "HgN/A
10:00 PM48 °FLight rain. Low clouds.28 mph94%29.83 "HgN/A
9:30 PM50 °FDrizzle. Overcast.16 mph100%29.80 "Hg4 mi
9:00 PM50 °FPartly cloudy.14 mph94%29.80 "HgN/A
8:30 PM50 °FMostly cloudy.14 mph94%29.80 "HgN/A
8:00 PM50 °FFog.14 mph94%29.80 "Hg3 mi
7:30 PM48 °FDrizzle. Mostly cloudy.15 mph100%29.83 "Hg4 mi
7:00 PM50 °FLow clouds.14 mph94%29.83 "HgN/A
6:30 PM50 °FLow clouds.14 mph94%29.83 "HgN/A
6:00 PM50 °FLow clouds.13 mph88%29.83 "HgN/A
5:30 PM50 °FOvercast.13 mph88%29.86 "HgN/A
5:00 PM50 °FMostly cloudy.13 mph88%29.86 "HgN/A
4:30 PM50 °FLow clouds.13 mph88%29.86 "HgN/A
4:00 PM50 °FOvercast.13 mph88%29.89 "HgN/A
3:30 PM48 °FOvercast.13 mph94%29.89 "HgN/A
3:00 PM50 °FMostly cloudy.14 mph88%29.89 "HgN/A
2:30 PM50 °FMostly cloudy.13 mph82%29.92 "HgN/A
2:00 PM50 °FOvercast.13 mph82%29.92 "HgN/A
1:30 PM50 °FOvercast.12 mph82%29.95 "HgN/A
1:00 PM50 °FScattered clouds.14 mph76%29.98 "HgN/A
12:30 PM50 °FMostly cloudy.10 mph76%29.98 "HgN/A
12:00 PM50 °FOvercast.12 mph76%30.01 "HgN/A
11:30 AM50 °FOvercast.12 mph76%30.01 "HgN/A
11:00 AM50 °FOvercast.9 mph82%30.04 "HgN/A
10:30 AM48 °FMostly cloudy.9 mph87%30.04 "HgN/A
10:00 AM48 °FPartly sunny.8 mph82%30.04 "HgN/A
9:30 AM48 °FOvercast.8 mph82%30.04 "HgN/A
9:00 AM48 °FOvercast.7 mph87%30.07 "HgN/A
Weather by CustomWeather, © 2015

See weather overviewHow to use our weather pages